TimeEST,TemperatureF,Dew PointF,Humidity,Sea Level PressureIn,VisibilityMPH,Wind Direction,Wind SpeedMPH,Gust SpeedMPH,PrecipitationIn,Events,Conditions,WindDirDegrees,DateUTC
12:53 AM,52.0,39.9,63,30.18,10.0,South,11.5,-,N/A,,Clear,170,2013-11-06 05:53:00
1:53 AM,51.1,39.0,63,30.15,10.0,South,11.5,-,N/A,,Partly Cloudy,170,2013-11-06 06:53:00
2:53 AM,52.0,39.0,61,30.13,10.0,South,13.8,-,N/A,,Overcast,180,2013-11-06 07:53:00
3:53 AM,52.0,39.0,61,30.11,10.0,South,11.5,-,N/A,,Overcast,180,2013-11-06 08:53:00
4:53 AM,52.0,41.0,66,30.09,10.0,South,11.5,-,0.00,,Overcast,170,2013-11-06 09:53:00
5:53 AM,53.1,39.9,61,30.06,10.0,South,15.0,-,N/A,,Overcast,170,2013-11-06 10:53:00
6:53 AM,53.1,42.1,66,30.03,10.0,South,13.8,-,N/A,,Overcast,180,2013-11-06 11:53:00
7:53 AM,54.0,43.0,66,30.02,10.0,South,12.7,-,N/A,,Mostly Cloudy,180,2013-11-06 12:53:00
8:53 AM,57.0,44.1,62,30.02,10.0,SSW,16.1,21.9,N/A,,Overcast,200,2013-11-06 13:53:00
9:53 AM,59.0,45.0,60,30.00,10.0,SSW,16.1,23.0,N/A,,Mostly Cloudy,200,2013-11-06 14:53:00
10:53 AM,61.0,45.0,56,29.98,10.0,SSW,20.7,29.9,0.00,,Clear,200,2013-11-06 15:53:00
11:53 AM,60.1,48.0,64,29.96,10.0,SSW,23.0,32.2,0.00,Rain,Light Rain,210,2013-11-06 16:53:00
12:53 PM,57.0,48.9,74,29.93,10.0,SSW,21.9,32.2,0.01,Rain,Light Rain,200,2013-11-06 17:53:00
1:40 PM,57.2,51.8,82,29.90,10.0,SSW,19.6,27.6,0.01,Rain,Light Rain,200,2013-11-06 18:40:00
1:53 PM,57.0,51.1,81,29.91,10.0,SSW,20.7,27.6,0.01,,Overcast,200,2013-11-06 18:53:00
2:53 PM,57.0,52.0,83,29.88,9.0,SSW,16.1,26.5,0.02,Rain,Light Rain,200,2013-11-06 19:53:00
3:53 PM,57.9,53.1,84,29.89,10.0,SW,18.4,25.3,0.00,,Overcast,220,2013-11-06 20:53:00
4:31 PM,57.2,53.6,88,29.90,4.0,SW,20.7,27.6,0.02,Rain,Light Rain,230,2013-11-06 21:31:00
4:45 PM,57.2,53.6,88,29.90,5.0,SW,18.4,27.6,0.03,Rain,Light Rain,230,2013-11-06 21:45:00
4:53 PM,57.0,53.1,87,29.90,10.0,SW,15.0,25.3,0.03,Rain,Light Rain,230,2013-11-06 21:53:00
5:53 PM,57.0,52.0,83,29.90,10.0,SW,17.3,23.0,0.00,,Overcast,220,2013-11-06 22:53:00
6:53 PM,57.0,52.0,83,29.91,10.0,SW,16.1,-,N/A,,Overcast,230,2013-11-06 23:53:00
7:53 PM,55.9,52.0,87,29.92,10.0,WSW,13.8,21.9,0.00,Rain,Light Rain,240,2013-11-07 00:53:00
8:18 PM,55.4,51.8,88,29.91,10.0,WSW,15.0,-,0.00,,Overcast,240,2013-11-07 01:18:00
8:40 PM,50.0,46.4,87,29.94,10.0,WNW,17.3,-,0.01,Rain,Light Rain,290,2013-11-07 01:40:00
8:53 PM,48.9,44.1,83,29.95,10.0,WNW,25.3,32.2,0.01,Rain,Light Rain,290,2013-11-07 01:53:00
9:35 PM,46.4,42.8,87,29.98,10.0,West,15.0,-,0.04,Rain,Light Rain,280,2013-11-07 02:35:00
9:53 PM,46.9,43.0,86,29.96,10.0,WNW,13.8,-,0.05,Rain,Light Rain,290,2013-11-07 02:53:00
10:21 PM,46.4,42.8,87,29.99,10.0,West,12.7,20.7,0.00,,Overcast,280,2013-11-07 03:21:00
10:53 PM,46.0,41.0,83,29.99,10.0,WNW,12.7,-,0.00,Rain,Light Rain,290,2013-11-07 03:53:00
11:53 PM,45.0,41.0,86,30.00,10.0,WNW,11.5,-,0.00,,Overcast,290,2013-11-07 04:53:00